Location: Newark
(53.5596°N, 1.2370°W)
Time: 17:56:40
(UTC+00:00)

Envisat - Visible Passes

Search period start: 19 October 2019 00:00
Search period end: 29 October 2019 00:00
Orbit: 764 x 766 km, 98.1° (Epoch: 19 October)

Date Brightness Start Highest point End Pass type
(mag) Time Alt. Az. Time Alt. Az. Time Alt. Az.
19 Oct 3.4 18:10:34 10° S 18:15:38 68° WSW 18:20:44 10° NNW visible
19 Oct 6.2 19:53:45 10° WSW 19:55:39 12° W 19:57:34 10° WNW visible
20 Oct 3.0 17:33:50 10° SSE 17:38:52 65° ENE 17:43:55 10° N visible
20 Oct 5.4 19:14:21 10° SW 19:18:21 23° W 19:22:23 10° NW visible
21 Oct 6.2 05:37:33 10° NE 05:40:18 14° E 05:43:03 10° ESE visible
21 Oct 4.3 18:36:25 10° S 18:41:15 43° W 18:46:07 10° NNW visible
22 Oct 3.1 17:59:16 10° SSE 18:04:21 82° WSW 18:09:29 10° NNW visible
22 Oct 6.0 19:41:24 10° WSW 19:44:12 15° W 19:47:02 10° NW visible
23 Oct 5.9 06:02:10 10° NE 06:06:11 23° E 06:10:09 10° SE visible
23 Oct 3.1 17:22:42 10° SE 17:27:38 54° ENE 17:32:36 10° N visible
23 Oct 5.1 19:02:38 10° SSW 19:06:58 28° W 19:11:19 10° NNW visible
24 Oct 6.4 05:27:02 10° ENE 05:28:51 12° E 05:30:40 10° ESE visible
24 Oct 3.9 18:24:58 10° S 18:29:55 52° W 18:34:55 10° NNW visible
25 Oct 3.0 17:47:59 10° SSE 17:53:04 84° ENE 17:58:12 10° NNW visible
25 Oct 5.8 19:29:22 10° SW 19:32:47 18° W 19:36:12 10° NW visible
26 Oct 6.0 05:51:11 10° NE 05:54:46 19° E 05:58:20 10° SE visible
26 Oct 4.8 18:51:02 10° SSW 18:55:36 33° W 19:00:12 10° NNW visible
27 Oct 3.5 18:13:35 10° S 18:18:37 63° WSW 18:23:41 10° NNW visible
27 Oct 6.2 19:57:19 10° W 19:58:42 11° W 20:00:05 10° WNW visible
28 Oct 5.4 06:16:08 10° NNE 06:20:34 29° E 06:24:58 10° SSE visible
28 Oct 3.0 17:36:46 10° SSE 17:41:49 70° ENE 17:46:54 10° NNW visible
28 Oct 5.5 19:17:31 10° SW 19:21:22 21° W 19:25:15 10° NW visible
